Wetterdaten: Montag, 30.11.2015
Datum Zeit Auen-Temp. Temp gefhlt Luftfeuchte Luftdruck Regen Wind Richtung Richtung Taupunkt Windben
30.11.2015 00:00 7,2 C 6,7 C 60 % 1022,4 hPa 0,0 mm 17,6 km/h (3 Bft) SW 225 -0,0 C 17,3 km/h (3 Bft)
30.11.2015 00:05 7,0 C 6,6 C 60 % 1022,4 hPa 0,0 mm 15,3 km/h (3 Bft) W-SW 247 -0,2 C 20,7 km/h (4 Bft)
30.11.2015 00:10 7,3 C 6,8 C 60 % 1022,4 hPa 0,0 mm 14,0 km/h (3 Bft) W 270 0,1 C 34,7 km/h (5 Bft)
30.11.2015 00:15 7,4 C 6,7 C 60 % 1022,5 hPa 0,0 mm 16,1 km/h (3 Bft) W 270 0,2 C 18,4 km/h (3 Bft)
30.11.2015 00:20 7,7 C 6,9 C 59 % 1022,5 hPa 0,0 mm 19,2 km/h (3 Bft) W-NW 292 0,2 C 51,5 km/h (7 Bft)
30.11.2015 00:25 7,6 C 6,8 C 59 % 1022,5 hPa 0,0 mm 19,2 km/h (3 Bft) W 270 0,1 C 17,3 km/h (3 Bft)
30.11.2015 00:30 7,5 C 7,1 C 59 % 1022,5 hPa 0,0 mm 18,1 km/h (3 Bft) W-SW 247 0,0 C 15,0 km/h (3 Bft)
30.11.2015 00:35 7,5 C 7,1 C 59 % 1023,2 hPa 0,0 mm 16,1 km/h (3 Bft) NW 315 0,0 C 21,0 km/h (4 Bft)
30.11.2015 00:40 7,4 C 7,0 C 59 % 1023,2 hPa 0,0 mm 15,5 km/h (3 Bft) NW 315 -0,1 C 11,9 km/h (2 Bft)
30.11.2015 00:45 7,4 C 6,8 C 60 % 1023,2 hPa 0,0 mm 16,1 km/h (3 Bft) NW 315 0,2 C 22,0 km/h (4 Bft)
30.11.2015 00:50 7,3 C 6,9 C 60 % 1023,2 hPa 0,0 mm 19,4 km/h (3 Bft) SW 225 0,1 C 24,6 km/h (4 Bft)
30.11.2015 00:55 7,2 C 6,7 C 60 % 1023,7 hPa 0,0 mm 21,5 km/h (4 Bft) N-NW 337 -0,0 C 19,7 km/h (3 Bft)
30.11.2015 01:00 6,9 C 6,4 C 61 % 1023,7 hPa 0,0 mm 18,1 km/h (3 Bft) W-SW 247 -0,1 C 13,2 km/h (3 Bft)
30.11.2015 01:05 6,8 C 6,4 C 61 % 1023,7 hPa 0,0 mm 14,0 km/h (3 Bft) N-NO 22 -0,2 C 22,3 km/h (4 Bft)
30.11.2015 01:10 7,1 C 6,7 C 62 % 1023,7 hPa 0,0 mm 12,7 km/h (3 Bft) NW 315 0,3 C 22,3 km/h (4 Bft)
30.11.2015 01:15 7,0 C 6,6 C 62 % 1023,8 hPa 0,0 mm 14,2 km/h (3 Bft) NW 315 0,2 C 21,5 km/h (4 Bft)
30.11.2015 01:20 7,3 C 6,9 C 61 % 1023,8 hPa 0,0 mm 15,0 km/h (3 Bft) W 270 0,3 C 26,2 km/h (4 Bft)
30.11.2015 01:25 7,3 C 6,9 C 60 % 1023,8 hPa 0,0 mm 15,0 km/h (3 Bft) W 270 0,1 C 12,2 km/h (2 Bft)
30.11.2015 01:30 7,4 C 7,0 C 60 % 1023,8 hPa 0,0 mm 14,5 km/h (3 Bft) W-SW 247 0,2 C 12,2 km/h (2 Bft)
30.11.2015 01:35 7,5 C 7,1 C 60 % 1023,5 hPa 0,0 mm 14,8 km/h (3 Bft) W 270 0,2 C 18,4 km/h (3 Bft)
30.11.2015 01:40 7,5 C 7,1 C 60 % 1023,5 hPa 0,0 mm 14,8 km/h (3 Bft) W-SW 247 0,2 C 12,9 km/h (3 Bft)
30.11.2015 01:45 7,5 C 7,0 C 60 % 1023,5 hPa 0,0 mm 15,3 km/h (3 Bft) W 270 0,2 C 33,1 km/h (5 Bft)
30.11.2015 01:50 7,5 C 7,2 C 60 % 1023,5 hPa 0,0 mm 16,8 km/h (3 Bft) W-SW 247 0,2 C 54,1 km/h (7 Bft)
30.11.2015 01:55 7,5 C 7,1 C 60 % 1023,5 hPa 0,0 mm 18,4 km/h (3 Bft) SW 225 0,2 C 29,8 km/h (5 Bft)
30.11.2015 02:00 7,5 C 7,0 C 60 % 1023,5 hPa 0,0 mm 18,9 km/h (3 Bft) W-NW 292 0,2 C 33,7 km/h (5 Bft)
30.11.2015 02:05 7,4 C 6,9 C 60 % 1023,5 hPa 0,0 mm 21,8 km/h (4 Bft) W 270 0,2 C 21,8 km/h (4 Bft)
30.11.2015 02:10 7,2 C 6,7 C 61 % 1023,5 hPa 0,0 mm 21,2 km/h (4 Bft) N-NO 22 0,2 C 15,0 km/h (3 Bft)
30.11.2015 02:15 7,1 C 6,7 C 62 % 1023,7 hPa 0,0 mm 17,3 km/h (3 Bft) W 270 0,3 C 14,2 km/h (3 Bft)
30.11.2015 02:20 7,0 C 6,4 C 63 % 1023,7 hPa 0,0 mm 16,1 km/h (3 Bft) W-SW 247 0,4 C 12,4 km/h (3 Bft)
30.11.2015 02:25 6,9 C 6,3 C 63 % 1023,7 hPa 0,0 mm 15,0 km/h (3 Bft) W-SW 247 0,4 C 12,4 km/h (3 Bft)
30.11.2015 02:30 7,0 C 6,6 C 63 % 1023,7 hPa 0,0 mm 13,2 km/h (3 Bft) W-SW 247 0,4 C 16,6 km/h (3 Bft)
30.11.2015 02:35 7,0 C 6,6 C 63 % 1023,3 hPa 0,0 mm 14,5 km/h (3 Bft) SW 225 0,4 C 26,4 km/h (4 Bft)
30.11.2015 02:40 7,3 C 6,8 C 62 % 1023,3 hPa 0,0 mm 15,0 km/h (3 Bft) W-NW 292 0,5 C 17,9 km/h (3 Bft)
30.11.2015 02:45 7,5 C 7,0 C 61 % 1023,3 hPa 0,0 mm 15,8 km/h (3 Bft) W 270 0,5 C 18,6 km/h (3 Bft)
30.11.2015 02:50 7,6 C 7,0 C 60 % 1023,3 hPa 0,0 mm 18,4 km/h (3 Bft) NW 315 0,3 C 25,9 km/h (4 Bft)
30.11.2015 02:55 7,5 C 7,0 C 60 % 1023,0 hPa 0,0 mm 16,1 km/h (3 Bft) W-NW 292 0,2 C 12,2 km/h (2 Bft)
30.11.2015 03:00 7,6 C 7,2 C 60 % 1023,0 hPa 0,0 mm 15,3 km/h (3 Bft) W 270 0,3 C 26,4 km/h (4 Bft)
30.11.2015 03:05 7,8 C 7,3 C 59 % 1023,0 hPa 0,0 mm 18,4 km/h (3 Bft) S 180 0,3 C 31,8 km/h (5 Bft)
30.11.2015 03:10 7,7 C 7,0 C 59 % 1023,0 hPa 0,0 mm 19,7 km/h (3 Bft) SW 225 0,2 C 19,9 km/h (4 Bft)
30.11.2015 03:15 7,7 C 7,2 C 59 % 1022,8 hPa 0,0 mm 17,6 km/h (3 Bft) W-SW 247 0,2 C 17,6 km/h (3 Bft)
30.11.2015 03:20 7,8 C 7,4 C 58 % 1022,8 hPa 0,0 mm 17,1 km/h (3 Bft) W-SW 247 0,1 C 20,7 km/h (4 Bft)
30.11.2015 03:25 7,9 C 7,5 C 58 % 1022,8 hPa 0,0 mm 17,3 km/h (3 Bft) W 270 0,2 C 7,3 km/h (2 Bft)
30.11.2015 03:30 8,0 C 7,5 C 58 % 1022,8 hPa 0,0 mm 19,9 km/h (4 Bft) W 270 0,3 C 23,8 km/h (4 Bft)
30.11.2015 03:35 7,8 C 7,1 C 58 % 1022,8 hPa 0,0 mm 19,9 km/h (4 Bft) W 270 0,1 C 41,2 km/h (6 Bft)
30.11.2015 03:40 7,8 C 7,4 C 58 % 1022,8 hPa 0,0 mm 16,3 km/h (3 Bft) W-NW 292 0,1 C 23,8 km/h (4 Bft)
30.11.2015 03:45 7,9 C 7,5 C 58 % 1022,8 hPa 0,0 mm 18,9 km/h (3 Bft) W 270 0,2 C 25,9 km/h (4 Bft)
30.11.2015 03:50 8,0 C 7,5 C 58 % 1022,8 hPa 0,0 mm 20,2 km/h (4 Bft) W-SW 247 0,3 C 21,2 km/h (4 Bft)
30.11.2015 03:55 7,9 C 7,2 C 58 % 1023,2 hPa 0,0 mm 20,2 km/h (4 Bft) W 270 0,2 C 41,9 km/h (6 Bft)
30.11.2015 04:00 7,8 C 7,4 C 58 % 1023,2 hPa 0,0 mm 17,9 km/h (3 Bft) N-NO 22 0,1 C 22,5 km/h (4 Bft)
30.11.2015 04:05 7,8 C 7,3 C 59 % 1023,2 hPa 0,0 mm 18,1 km/h (3 Bft) W-SW 247 0,3 C 9,8 km/h (2 Bft)
30.11.2015 04:10 7,8 C 7,3 C 59 % 1023,2 hPa 0,0 mm 17,6 km/h (3 Bft) SW 225 0,3 C 12,7 km/h (3 Bft)
30.11.2015 04:15 7,9 C 7,4 C 59 % 1023,5 hPa 0,0 mm 21,0 km/h (4 Bft) W-SW 247 0,4 C 31,1 km/h (5 Bft)
30.11.2015 04:20 7,8 C 7,0 C 59 % 1023,5 hPa 0,0 mm 22,0 km/h (4 Bft) W 270 0,3 C 24,9 km/h (4 Bft)
30.11.2015 04:25 7,8 C 7,0 C 59 % 1023,5 hPa 0,0 mm 21,5 km/h (4 Bft) W-SW 247 0,3 C 40,9 km/h (6 Bft)
30.11.2015 04:30 7,7 C 7,2 C 59 % 1023,5 hPa 0,0 mm 19,4 km/h (3 Bft) W 270 0,2 C 26,9 km/h (4 Bft)
30.11.2015 04:35 7,6 C 6,9 C 59 % 1023,3 hPa 0,0 mm 17,9 km/h (3 Bft) W-SW 247 0,1 C 24,3 km/h (4 Bft)
30.11.2015 04:40 7,7 C 7,2 C 59 % 1023,3 hPa 0,0 mm 19,9 km/h (4 Bft) W-SW 247 0,2 C 19,2 km/h (3 Bft)
30.11.2015 04:45 7,7 C 7,1 C 59 % 1023,3 hPa 0,0 mm 22,0 km/h (4 Bft) W 270 0,2 C 25,1 km/h (4 Bft)
30.11.2015 04:50 7,7 C 7,2 C 59 % 1023,3 hPa 0,0 mm 17,6 km/h (3 Bft) W-SW 247 0,2 C 12,4 km/h (3 Bft)
30.11.2015 04:55 7,5 C 7,1 C 60 % 1023,7 hPa 0,0 mm 15,3 km/h (3 Bft) W 270 0,2 C 14,5 km/h (3 Bft)
30.11.2015 05:00 7,4 C 7,0 C 60 % 1023,7 hPa 0,0 mm 12,9 km/h (3 Bft) W 270 0,2 C 20,7 km/h (4 Bft)
30.11.2015 05:05 7,5 C 7,1 C 60 % 1023,7 hPa 0,0 mm 14,5 km/h (3 Bft) W 270 0,2 C 11,9 km/h (2 Bft)
30.11.2015 05:10 7,5 C 7,1 C 60 % 1023,7 hPa 0,0 mm 14,0 km/h (3 Bft) SW 225 0,2 C 22,5 km/h (4 Bft)
30.11.2015 05:15 7,6 C 7,0 C 60 % 1023,8 hPa 0,0 mm 14,5 km/h (3 Bft) W 270 0,3 C 28,5 km/h (4 Bft)
30.11.2015 05:20 7,7 C 7,2 C 60 % 1023,8 hPa 0,0 mm 17,3 km/h (3 Bft) W 270 0,4 C 45,3 km/h (6 Bft)
30.11.2015 05:25 7,8 C 7,3 C 59 % 1023,8 hPa 0,0 mm 21,5 km/h (4 Bft) W 270 0,3 C 43,5 km/h (6 Bft)
30.11.2015 05:30 7,7 C 7,2 C 59 % 1023,8 hPa 0,0 mm 22,3 km/h (4 Bft) W 270 0,2 C 60,1 km/h (7 Bft)
30.11.2015 05:35 7,7 C 6,9 C 59 % 1023,8 hPa 0,0 mm 22,8 km/h (4 Bft) W-SW 247 0,2 C 19,9 km/h (4 Bft)
30.11.2015 05:36 7,7 C 6,6 C 59 % 1023,8 hPa 0,0 mm 21,2 km/h (4 Bft) SW 225 0,2 C 13,7 km/h (3 Bft)
30.11.2015 05:41 7,7 C 6,9 C 59 % 1023,8 hPa 0,0 mm 21,2 km/h (4 Bft) SW 225 0,2 C 13,7 km/h (3 Bft)
30.11.2015 05:45 7,6 C 6,8 C 59 % 1023,8 hPa 0,0 mm 20,5 km/h (4 Bft) W-NW 292 0,1 C 41,2 km/h (6 Bft)
30.11.2015 05:50 7,7 C 7,1 C 59 % 1023,8 hPa 0,0 mm 21,2 km/h (4 Bft) W-NW 292 0,2 C 13,5 km/h (3 Bft)
30.11.2015 05:55 7,6 C 7,0 C 60 % 1023,8 hPa 0,0 mm 20,2 km/h (4 Bft) NW 315 0,3 C 26,9 km/h (4 Bft)
30.11.2015 06:00 7,5 C 6,9 C 60 % 1023,8 hPa 0,0 mm 20,2 km/h (4 Bft) W-SW 247 0,2 C 36,8 km/h (5 Bft)
30.11.2015 06:05 7,5 C 6,9 C 60 % 1023,8 hPa 0,0 mm 22,5 km/h (4 Bft) W-NW 292 0,2 C 41,2 km/h (6 Bft)
30.11.2015 06:10 7,4 C 6,8 C 60 % 1023,8 hPa 0,0 mm 21,5 km/h (4 Bft) W 270 0,2 C 62,1 km/h (8 Bft)
30.11.2015 06:15 7,4 C 6,5 C 60 % 1023,9 hPa 0,0 mm 21,0 km/h (4 Bft) W 270 0,2 C 29,0 km/h (5 Bft)
30.11.2015 06:20 7,3 C 6,8 C 60 % 1023,9 hPa 0,0 mm 17,1 km/h (3 Bft) W-NW 292 0,1 C 14,0 km/h (3 Bft)
30.11.2015 06:25 7,2 C 6,7 C 61 % 1023,9 hPa 0,0 mm 17,3 km/h (3 Bft) SW 225 0,2 C 17,1 km/h (3 Bft)
30.11.2015 06:30 7,3 C 6,7 C 61 % 1023,9 hPa 0,0 mm 19,2 km/h (3 Bft) W 270 0,3 C 64,7 km/h (8 Bft)
30.11.2015 06:35 7,4 C 6,8 C 60 % 1024,0 hPa 0,0 mm 19,7 km/h (3 Bft) W 270 0,2 C 27,7 km/h (4 Bft)
30.11.2015 06:40 7,4 C 6,8 C 60 % 1024,0 hPa 0,0 mm 21,5 km/h (4 Bft) W-NW 292 0,2 C 12,4 km/h (3 Bft)
30.11.2015 06:45 7,4 C 6,8 C 60 % 1024,0 hPa 0,0 mm 20,5 km/h (4 Bft) W-SW 247 0,2 C 16,6 km/h (3 Bft)
30.11.2015 06:50 7,3 C 6,8 C 60 % 1024,0 hPa 0,0 mm 16,3 km/h (3 Bft) W-SW 247 0,1 C 15,0 km/h (3 Bft)
30.11.2015 06:55 7,2 C 6,8 C 60 % 1024,3 hPa 0,0 mm 14,0 km/h (3 Bft) W 270 -0,0 C 14,8 km/h (3 Bft)
30.11.2015 07:00 7,2 C 6,8 C 60 % 1024,3 hPa 0,0 mm 13,2 km/h (3 Bft) W-NW 292 -0,0 C 19,4 km/h (3 Bft)
30.11.2015 07:05 7,1 C 6,7 C 61 % 1024,3 hPa 0,0 mm 13,7 km/h (3 Bft) S 180 0,1 C 19,9 km/h (4 Bft)
30.11.2015 07:10 6,9 C 6,4 C 62 % 1024,3 hPa 0,0 mm 14,5 km/h (3 Bft) W 270 0,1 C 18,9 km/h (3 Bft)
30.11.2015 07:15 6,9 C 6,2 C 63 % 1024,5 hPa 0,0 mm 14,2 km/h (3 Bft) W 270 0,4 C 14,0 km/h (3 Bft)
30.11.2015 07:20 6,9 C 6,2 C 63 % 1024,5 hPa 0,0 mm 15,5 km/h (3 Bft) W-SW 247 0,4 C 35,5 km/h (5 Bft)
30.11.2015 07:25 7,0 C 6,4 C 63 % 1024,5 hPa 0,0 mm 17,6 km/h (3 Bft) W 270 0,4 C 30,8 km/h (5 Bft)
30.11.2015 07:30 6,9 C 6,4 C 63 % 1024,5 hPa 0,0 mm 16,1 km/h (3 Bft) W-SW 247 0,4 C 15,0 km/h (3 Bft)
30.11.2015 07:35 7,0 C 6,3 C 63 % 1024,6 hPa 0,0 mm 15,8 km/h (3 Bft) W-SW 247 0,4 C 18,1 km/h (3 Bft)
30.11.2015 07:40 6,9 C 6,5 C 64 % 1024,6 hPa 0,0 mm 14,2 km/h (3 Bft) S-SW 202 0,6 C 9,3 km/h (2 Bft)
30.11.2015 07:45 6,9 C 6,3 C 63 % 1024,6 hPa 0,0 mm 14,2 km/h (3 Bft) W-SW 247 0,4 C 16,8 km/h (3 Bft)
30.11.2015 07:50 7,0 C 6,5 C 63 % 1024,6 hPa 0,0 mm 14,5 km/h (3 Bft) W-SW 247 0,4 C 25,1 km/h (4 Bft)
30.11.2015 07:55 7,0 C 6,5 C 63 % 1024,3 hPa 0,0 mm 15,8 km/h (3 Bft) W 270 0,4 C 22,5 km/h (4 Bft)
30.11.2015 08:00 7,0 C 6,5 C 63 % 1024,3 hPa 0,0 mm 16,8 km/h (3 Bft) W-SW 247 0,4 C 21,2 km/h (4 Bft)
30.11.2015 08:05 7,0 C 6,6 C 63 % 1024,3 hPa 0,0 mm 15,5 km/h (3 Bft) W 270 0,4 C 19,4 km/h (3 Bft)
30.11.2015 08:10 7,0 C 6,6 C 63 % 1024,3 hPa 0,0 mm 15,3 km/h (3 Bft) W 270 0,4 C 15,0 km/h (3 Bft)
30.11.2015 08:15 7,0 C 6,5 C 64 % 1024,5 hPa 0,0 mm 17,6 km/h (3 Bft) W-SW 247 0,7 C 23,6 km/h (4 Bft)
30.11.2015 08:20 6,9 C 6,3 C 66 % 1024,5 hPa 0,0 mm 18,4 km/h (3 Bft) NW 315 1,0 C 34,7 km/h (5 Bft)
30.11.2015 08:25 6,8 C 6,1 C 67 % 1024,5 hPa 0,0 mm 18,6 km/h (3 Bft) NW 315 1,1 C 41,4 km/h (6 Bft)
30.11.2015 08:30 6,8 C 6,0 C 68 % 1024,5 hPa 0,0 mm 19,7 km/h (3 Bft) W 270 1,3 C 21,2 km/h (4 Bft)
30.11.2015 08:35 6,8 C 6,0 C 68 % 1024,9 hPa 0,0 mm 18,9 km/h (3 Bft) W 270 1,3 C 21,2 km/h (4 Bft)
30.11.2015 08:40 6,6 C 5,9 C 69 % 1024,9 hPa 0,0 mm 16,6 km/h (3 Bft) NW 315 1,3 C 20,5 km/h (4 Bft)
30.11.2015 08:45 6,5 C 5,9 C 70 % 1024,9 hPa 0,0 mm 15,3 km/h (3 Bft) W-NW 292 1,4 C 12,2 km/h (2 Bft)
30.11.2015 08:50 6,5 C 5,8 C 70 % 1024,9 hPa 0,0 mm 16,8 km/h (3 Bft) SW 225 1,4 C 31,6 km/h (5 Bft)
30.11.2015 08:55 6,3 C 5,6 C 71 % 1025,4 hPa 0,0 mm 16,8 km/h (3 Bft) W-SW 247 1,4 C 15,5 km/h (3 Bft)
30.11.2015 09:00 6,4 C 5,6 C 72 % 1025,4 hPa 0,0 mm 19,4 km/h (3 Bft) W 270 1,7 C 25,6 km/h (4 Bft)
30.11.2015 09:05 6,3 C 5,5 C 72 % 1025,4 hPa 0,0 mm 17,6 km/h (3 Bft) SW 225 1,6 C 11,7 km/h (2 Bft)
30.11.2015 09:10 6,2 C 5,2 C 73 % 1025,4 hPa 0,0 mm 15,5 km/h (3 Bft) W-SW 247 1,7 C 20,2 km/h (4 Bft)
30.11.2015 09:15 6,1 C 5,4 C 74 % 1025,6 hPa 0,0 mm 15,8 km/h (3 Bft) N 360 1,8 C 25,6 km/h (4 Bft)
30.11.2015 09:20 6,0 C 5,3 C 75 % 1025,6 hPa 0,0 mm 15,5 km/h (3 Bft) W-SW 247 1,9 C 28,7 km/h (4 Bft)
30.11.2015 09:25 6,0 C 5,2 C 76 % 1025,6 hPa 0,0 mm 15,0 km/h (3 Bft) W 270 2,1 C 27,2 km/h (4 Bft)
30.11.2015 09:30 6,0 C 5,2 C 76 % 1025,6 hPa 0,0 mm 15,5 km/h (3 Bft) NW 315 2,1 C 11,7 km/h (2 Bft)
30.11.2015 09:35 6,0 C 5,2 C 76 % 1025,7 hPa 0,0 mm 14,8 km/h (3 Bft) SW 225 2,1 C 15,3 km/h (3 Bft)
30.11.2015 09:40 6,1 C 5,3 C 76 % 1025,7 hPa 0,0 mm 13,7 km/h (3 Bft) NW 315 2,2 C 16,8 km/h (3 Bft)
30.11.2015 09:45 6,2 C 5,3 C 75 % 1025,7 hPa 0,0 mm 14,2 km/h (3 Bft) W 270 2,1 C 27,7 km/h (4 Bft)
30.11.2015 09:50 6,3 C 5,4 C 74 % 1025,7 hPa 0,0 mm 15,8 km/h (3 Bft) W 270 2,0 C 25,1 km/h (4 Bft)
30.11.2015 09:55 6,3 C 5,3 C 73 % 1025,8 hPa 0,0 mm 17,1 km/h (3 Bft) W 270 1,8 C 19,2 km/h (3 Bft)
30.11.2015 10:00 6,4 C 5,4 C 73 % 1025,8 hPa 0,7 mm 18,9 km/h (3 Bft) W 270 1,9 C 13,2 km/h (3 Bft)
30.11.2015 10:05 6,5 C 5,4 C 72 % 1025,8 hPa 0,0 mm 18,4 km/h (3 Bft) W-NW 292 1,8 C 29,0 km/h (5 Bft)
30.11.2015 10:10 6,6 C 5,7 C 71 % 1025,8 hPa 0,0 mm 17,3 km/h (3 Bft) NW 315 1,7 C 21,8 km/h (4 Bft)
30.11.2015 10:15 6,7 C 5,9 C 70 % 1025,8 hPa 0,0 mm 18,6 km/h (3 Bft) W 270 1,6 C 21,0 km/h (4 Bft)
30.11.2015 10:20 6,8 C 6,1 C 70 % 1025,8 hPa 0,0 mm 19,4 km/h (3 Bft) NW 315 1,7 C 31,3 km/h (5 Bft)
30.11.2015 10:25 6,8 C 6,2 C 70 % 1025,8 hPa 0,0 mm 18,6 km/h (3 Bft) W-SW 247 1,7 C 28,0 km/h (4 Bft)
30.11.2015 10:30 6,8 C 6,1 C 70 % 1025,8 hPa 0,0 mm 20,7 km/h (4 Bft) NW 315 1,7 C 17,6 km/h (3 Bft)
30.11.2015 10:35 6,8 C 5,7 C 70 % 1025,8 hPa 0,0 mm 20,7 km/h (4 Bft) NW 315 1,7 C 23,8 km/h (4 Bft)
30.11.2015 10:40 6,9 C 6,0 C 70 % 1025,8 hPa 0,0 mm 21,0 km/h (4 Bft) W-SW 247 1,8 C 36,8 km/h (5 Bft)
30.11.2015 10:45 7,0 C 6,2 C 69 % 1025,8 hPa 0,0 mm 22,5 km/h (4 Bft) SW 225 1,7 C 21,5 km/h (4 Bft)
30.11.2015 10:50 7,0 C 6,3 C 69 % 1025,8 hPa 0,0 mm 24,9 km/h (4 Bft) W 270 1,7 C 40,7 km/h (6 Bft)
30.11.2015 10:55 7,0 C 6,4 C 69 % 1025,9 hPa 0,0 mm 21,8 km/h (4 Bft) S-SW 202 1,7 C 17,3 km/h (3 Bft)
30.11.2015 11:00 7,1 C 6,6 C 69 % 1025,9 hPa 0,0 mm 20,2 km/h (4 Bft) W-SW 247 1,8 C 21,5 km/h (4 Bft)
30.11.2015 11:05 7,1 C 6,8 C 68 % 1025,9 hPa 0,0 mm 18,6 km/h (3 Bft) W-SW 247 1,6 C 22,5 km/h (4 Bft)
30.11.2015 11:10 7,2 C 7,0 C 68 % 1025,9 hPa 0,0 mm 16,6 km/h (3 Bft) W-NW 292 1,7 C 19,2 km/h (3 Bft)
30.11.2015 11:15 7,3 C 7,1 C 68 % 1025,8 hPa 0,0 mm 17,3 km/h (3 Bft) W-SW 247 1,8 C 38,6 km/h (5 Bft)
30.11.2015 11:20 7,4 C 7,2 C 68 % 1025,8 hPa 0,0 mm 19,4 km/h (3 Bft) W 270 1,9 C 35,2 km/h (5 Bft)
30.11.2015 11:25 7,4 C 7,2 C 67 % 1025,8 hPa 0,0 mm 21,8 km/h (4 Bft) W-SW 247 1,7 C 35,5 km/h (5 Bft)
30.11.2015 11:30 7,5 C 7,0 C 67 % 1025,8 hPa 0,0 mm 21,8 km/h (4 Bft) W 270 1,8 C 17,1 km/h (3 Bft)
30.11.2015 11:35 7,7 C 7,4 C 66 % 1025,8 hPa 0,0 mm 20,5 km/h (4 Bft) W 270 1,8 C 25,1 km/h (4 Bft)
30.11.2015 11:40 7,8 C 7,6 C 66 % 1025,8 hPa 0,0 mm 19,4 km/h (3 Bft) NW 315 1,9 C 19,4 km/h (3 Bft)
30.11.2015 11:42 7,8 C 6,9 C 66 % 1025,8 hPa 0,0 mm 19,4 km/h (3 Bft) NW 315 1,9 C 19,4 km/h (3 Bft)
30.11.2015 11:45 7,8 C 7,6 C 66 % 1025,8 hPa 0,0 mm 20,5 km/h (4 Bft) W 270 1,9 C 31,8 km/h (5 Bft)
30.11.2015 11:50 7,8 C 7,5 C 65 % 1025,8 hPa 0,0 mm 21,8 km/h (4 Bft) W 270 1,6 C 28,2 km/h (4 Bft)
30.11.2015 11:55 7,7 C 7,2 C 65 % 1025,6 hPa 0,0 mm 22,3 km/h (4 Bft) W 270 1,5 C 24,9 km/h (4 Bft)
30.11.2015 12:00 7,8 C 7,5 C 64 % 1025,6 hPa 0,0 mm 20,5 km/h (4 Bft) W-SW 247 1,4 C 16,6 km/h (3 Bft)
30.11.2015 12:05 7,8 C 7,6 C 64 % 1025,6 hPa 0,0 mm 19,4 km/h (3 Bft) N 360 1,4 C 25,1 km/h (4 Bft)
30.11.2015 12:10 7,8 C 7,3 C 64 % 1025,6 hPa 0,0 mm 19,7 km/h (3 Bft) W-NW 292 1,4 C 42,7 km/h (6 Bft)
30.11.2015 12:15 7,8 C 7,4 C 64 % 1025,6 hPa 0,0 mm 19,4 km/h (3 Bft) W-SW 247 1,4 C 25,1 km/h (4 Bft)
30.11.2015 12:20 7,9 C 7,8 C 64 % 1025,6 hPa 0,0 mm 19,4 km/h (3 Bft) W 270 1,5 C 13,7 km/h (3 Bft)
30.11.2015 12:25 8,0 C 7,9 C 63 % 1025,6 hPa 0,0 mm 18,6 km/h (3 Bft) S 180 1,4 C 26,4 km/h (4 Bft)
30.11.2015 12:30 8,1 C 8,0 C 63 % 1025,6 hPa 0,0 mm 18,6 km/h (3 Bft) W-SW 247 1,5 C 47,6 km/h (6 Bft)
30.11.2015 12:35 8,1 C 7,9 C 62 % 1025,4 hPa 0,0 mm 21,0 km/h (4 Bft) NW 315 1,3 C 24,3 km/h (4 Bft)
30.11.2015 12:40 8,2 C 8,1 C 61 % 1025,4 hPa 0,0 mm 21,5 km/h (4 Bft) W-SW 247 1,1 C 30,3 km/h (5 Bft)
30.11.2015 12:45 8,2 C 8,1 C 61 % 1025,4 hPa 0,0 mm 19,9 km/h (4 Bft) W-SW 247 1,1 C 22,3 km/h (4 Bft)
30.11.2015 12:50 8,3 C 8,2 C 60 % 1025,4 hPa 0,0 mm 23,0 km/h (4 Bft) W-SW 247 1,0 C 23,8 km/h (4 Bft)
30.11.2015 12:55 8,4 C 8,3 C 60 % 1025,2 hPa 0,0 mm 22,5 km/h (4 Bft) N-NO 22 1,1 C 18,6 km/h (3 Bft)
30.11.2015 13:00 8,4 C 8,3 C 60 % 1025,2 hPa 0,0 mm 20,5 km/h (4 Bft) W 270 1,1 C 25,6 km/h (4 Bft)
30.11.2015 13:05 8,3 C 8,3 C 60 % 1025,2 hPa 0,0 mm 18,6 km/h (3 Bft) W-NW 292 1,0 C 29,3 km/h (5 Bft)
30.11.2015 13:10 8,4 C 8,2 C 59 % 1025,2 hPa 0,0 mm 19,2 km/h (3 Bft) N-NO 22 0,9 C 17,9 km/h (3 Bft)
30.11.2015 13:15 8,4 C 8,2 C 59 % 1025,3 hPa 0,0 mm 17,3 km/h (3 Bft) W 270 0,9 C 19,9 km/h (4 Bft)
30.11.2015 13:20 8,4 C 8,3 C 59 % 1025,3 hPa 0,0 mm 15,8 km/h (3 Bft) W-NW 292 0,9 C 17,3 km/h (3 Bft)
30.11.2015 13:25 8,6 C 8,4 C 59 % 1025,3 hPa 0,0 mm 19,9 km/h (4 Bft) W-SW 247 1,0 C 16,6 km/h (3 Bft)
30.11.2015 13:30 8,7 C 8,5 C 59 % 1025,3 hPa 0,0 mm 18,1 km/h (3 Bft) W-SW 247 1,1 C 13,5 km/h (3 Bft)
30.11.2015 13:35 8,8 C 8,7 C 59 % 1025,1 hPa 0,0 mm 15,3 km/h (3 Bft) W 270 1,2 C 23,8 km/h (4 Bft)
30.11.2015 13:40 8,9 C 8,6 C 59 % 1025,1 hPa 0,0 mm 15,8 km/h (3 Bft) W-NW 292 1,3 C 15,0 km/h (3 Bft)
30.11.2015 13:45 8,9 C 8,7 C 59 % 1025,1 hPa 0,0 mm 16,1 km/h (3 Bft) W-SW 247 1,3 C 24,3 km/h (4 Bft)
30.11.2015 13:50 8,8 C 8,5 C 58 % 1025,1 hPa 0,0 mm 15,8 km/h (3 Bft) W-SW 247 1,0 C 15,8 km/h (3 Bft)
30.11.2015 13:55 8,8 C 8,6 C 58 % 1024,9 hPa 0,0 mm 16,3 km/h (3 Bft) W 270 1,0 C 21,8 km/h (4 Bft)
30.11.2015 14:00 8,7 C 8,5 C 58 % 1024,9 hPa 0,0 mm 16,1 km/h (3 Bft) SW 225 0,9 C 24,9 km/h (4 Bft)
30.11.2015 14:05 8,8 C 8,3 C 58 % 1024,9 hPa 0,0 mm 16,6 km/h (3 Bft) SW 225 1,0 C 16,6 km/h (3 Bft)
30.11.2015 14:10 8,8 C 8,5 C 57 % 1024,9 hPa 0,0 mm 17,1 km/h (3 Bft) W-SW 247 0,8 C 20,5 km/h (4 Bft)
30.11.2015 14:15 8,8 C 8,5 C 57 % 1024,7 hPa 0,0 mm 16,3 km/h (3 Bft) W 270 0,8 C 23,8 km/h (4 Bft)
30.11.2015 14:20 9,0 C 8,6 C 57 % 1024,7 hPa 0,0 mm 19,4 km/h (3 Bft) W-NW 292 0,9 C 22,0 km/h (4 Bft)
30.11.2015 14:25 8,9 C 8,5 C 57 % 1024,7 hPa 0,0 mm 20,2 km/h (4 Bft) W 270 0,9 C 12,9 km/h (3 Bft)
30.11.2015 14:30 8,9 C 8,5 C 57 % 1024,7 hPa 0,0 mm 18,4 km/h (3 Bft) W 270 0,9 C 44,3 km/h (6 Bft)
30.11.2015 14:35 8,9 C 8,6 C 56 % 1024,7 hPa 0,0 mm 16,3 km/h (3 Bft) SW 225 0,6 C 15,0 km/h (3 Bft)
30.11.2015 14:40 9,0 C 8,5 C 57 % 1024,7 hPa 0,0 mm 17,1 km/h (3 Bft) NW 315 0,9 C 25,1 km/h (4 Bft)
30.11.2015 14:45 9,0 C 8,7 C 56 % 1024,7 hPa 0,0 mm 16,8 km/h (3 Bft) W 270 0,7 C 23,0 km/h (4 Bft)
30.11.2015 14:50 9,1 C 8,8 C 56 % 1024,7 hPa 0,0 mm 20,7 km/h (4 Bft) NW 315 0,8 C 20,7 km/h (4 Bft)
30.11.2015 14:55 9,0 C 8,4 C 56 % 1024,3 hPa 0,0 mm 21,0 km/h (4 Bft) N-NW 337 0,7 C 30,6 km/h (5 Bft)
30.11.2015 15:00 9,1 C 8,7 C 56 % 1024,3 hPa 0,0 mm 18,9 km/h (3 Bft) NW 315 0,8 C 14,2 km/h (3 Bft)
30.11.2015 15:05 9,1 C 8,7 C 56 % 1024,3 hPa 0,0 mm 20,2 km/h (4 Bft) W-NW 292 0,8 C 33,7 km/h (5 Bft)
30.11.2015 15:10 8,9 C 8,6 C 56 % 1024,3 hPa 0,0 mm 22,5 km/h (4 Bft) W-SW 247 0,6 C 44,3 km/h (6 Bft)
30.11.2015 15:15 8,8 C 8,4 C 57 % 1024,5 hPa 0,0 mm 23,3 km/h (4 Bft) W 270 0,8 C 21,8 km/h (4 Bft)
30.11.2015 15:20 8,7 C 8,3 C 57 % 1024,5 hPa 0,0 mm 21,5 km/h (4 Bft) W-NW 292 0,7 C 31,8 km/h (5 Bft)
30.11.2015 15:25 8,5 C 8,1 C 57 % 1024,5 hPa 0,0 mm 22,8 km/h (4 Bft) NW 315 0,5 C 20,5 km/h (4 Bft)
30.11.2015 15:30 8,2 C 7,8 C 58 % 1024,5 hPa 0,0 mm 21,5 km/h (4 Bft) NW 315 0,4 C 27,2 km/h (4 Bft)
30.11.2015 15:35 8,1 C 7,7 C 58 % 1024,3 hPa 0,0 mm 20,5 km/h (4 Bft) W-NW 292 0,3 C 29,0 km/h (5 Bft)
30.11.2015 15:40 8,0 C 7,5 C 58 % 1024,3 hPa 0,0 mm 18,6 km/h (3 Bft) W-NW 292 0,3 C 24,6 km/h (4 Bft)
30.11.2015 15:45 8,0 C 7,5 C 58 % 1024,3 hPa 0,0 mm 17,1 km/h (3 Bft) W 270 0,3 C 51,0 km/h (7 Bft)
30.11.2015 15:50 8,0 C 7,5 C 57 % 1024,3 hPa 0,0 mm 16,8 km/h (3 Bft) NW 315 0,0 C 29,5 km/h (5 Bft)
30.11.2015 15:55 7,9 C 7,4 C 57 % 1024,3 hPa 0,0 mm 17,1 km/h (3 Bft) W-NW 292 -0,1 C 15,0 km/h (3 Bft)
30.11.2015 16:00 7,8 C 7,3 C 57 % 1024,3 hPa 0,0 mm 14,8 km/h (3 Bft) W-NW 292 -0,2 C 23,8 km/h (4 Bft)
30.11.2015 16:05 7,7 C 7,3 C 57 % 1024,3 hPa 0,0 mm 13,2 km/h (3 Bft) W 270 -0,3 C 20,2 km/h (4 Bft)
30.11.2015 16:10 7,9 C 7,3 C 57 % 1024,3 hPa 0,0 mm 14,5 km/h (3 Bft) W-NW 292 -0,1 C 26,7 km/h (4 Bft)
30.11.2015 16:15 8,1 C 7,6 C 57 % 1024,2 hPa 0,0 mm 16,6 km/h (3 Bft) W 270 0,1 C 23,3 km/h (4 Bft)
30.11.2015 16:20 8,0 C 7,5 C 57 % 1024,2 hPa 0,0 mm 17,6 km/h (3 Bft) W 270 0,0 C 23,8 km/h (4 Bft)
30.11.2015 16:25 8,0 C 7,3 C 57 % 1024,2 hPa 0,0 mm 17,3 km/h (3 Bft) SW 225 0,0 C 16,3 km/h (3 Bft)
30.11.2015 16:30 8,0 C 7,5 C 57 % 1024,2 hPa 0,0 mm 18,4 km/h (3 Bft) W 270 0,0 C 29,5 km/h (5 Bft)
30.11.2015 16:35 7,8 C 7,3 C 57 % 1024,0 hPa 0,0 mm 17,3 km/h (3 Bft) N 360 -0,2 C 22,5 km/h (4 Bft)
30.11.2015 16:40 7,6 C 7,1 C 57 % 1024,0 hPa 0,0 mm 14,8 km/h (3 Bft) S 180 -0,4 C 19,2 km/h (3 Bft)
30.11.2015 16:45 7,6 C 7,1 C 58 % 1024,0 hPa 0,0 mm 16,1 km/h (3 Bft) W 270 -0,1 C 28,7 km/h (4 Bft)
30.11.2015 16:50 7,6 C 7,0 C 58 % 1024,0 hPa 0,0 mm 18,6 km/h (3 Bft) SW 225 -0,1 C 30,8 km/h (5 Bft)
30.11.2015 16:55 7,6 C 7,0 C 58 % 1024,3 hPa 0,0 mm 19,7 km/h (3 Bft) W 270 -0,1 C 27,4 km/h (4 Bft)
30.11.2015 17:00 7,5 C 6,9 C 58 % 1024,3 hPa 0,0 mm 17,9 km/h (3 Bft) W 270 -0,2 C 31,3 km/h (5 Bft)
30.11.2015 17:05 7,5 C 7,0 C 58 % 1024,3 hPa 0,0 mm 15,8 km/h (3 Bft) W 270 -0,2 C 14,8 km/h (3 Bft)
30.11.2015 17:10 7,3 C 6,6 C 58 % 1024,3 hPa 0,0 mm 15,5 km/h (3 Bft) W-SW 247 -0,4 C 13,5 km/h (3 Bft)
30.11.2015 17:15 7,2 C 6,7 C 59 % 1024,1 hPa 0,0 mm 15,3 km/h (3 Bft) W-SW 247 -0,3 C 27,7 km/h (4 Bft)
30.11.2015 17:20 7,0 C 6,6 C 59 % 1024,1 hPa 0,0 mm 13,2 km/h (3 Bft) W-SW 247 -0,5 C 9,1 km/h (2 Bft)
30.11.2015 17:25 6,8 C 6,2 C 60 % 1024,1 hPa 0,0 mm 11,9 km/h (2 Bft) W-SW 247 -0,4 C 10,9 km/h (2 Bft)
30.11.2015 17:30 6,7 C 6,2 C 60 % 1024,1 hPa 0,0 mm 10,6 km/h (2 Bft) W-SW 247 -0,5 C 21,2 km/h (4 Bft)
30.11.2015 17:35 6,7 C 6,2 C 61 % 1024,0 hPa 0,0 mm 10,4 km/h (2 Bft) W 270 -0,3 C 8,3 km/h (2 Bft)
30.11.2015 17:40 6,5 C 6,0 C 61 % 1024,0 hPa 0,0 mm 9,6 km/h (2 Bft) SW 225 -0,5 C 8,0 km/h (2 Bft)
30.11.2015 17:43 6,5 C 6,0 C 61 % 1024,0 hPa 0,0 mm 9,6 km/h (2 Bft) SW 225 -0,5 C 8,0 km/h (2 Bft)
30.11.2015 17:45 6,4 C 5,9 C 61 % 1024,0 hPa 0,0 mm 9,1 km/h (2 Bft) SW 225 -0,6 C 11,4 km/h (2 Bft)
30.11.2015 17:50 6,5 C 5,9 C 61 % 1024,0 hPa 0,0 mm 9,8 km/h (2 Bft) SW 225 -0,5 C 14,0 km/h (3 Bft)
30.11.2015 17:55 6,5 C 6,0 C 61 % 1023,9 hPa 0,0 mm 10,1 km/h (2 Bft) W-SW 247 -0,5 C 15,5 km/h (3 Bft)
30.11.2015 18:00 6,3 C 5,8 C 62 % 1023,9 hPa 0,0 mm 9,8 km/h (2 Bft) W-SW 247 -0,4 C 13,7 km/h (3 Bft)
30.11.2015 18:05 6,3 C 5,8 C 62 % 1023,9 hPa 0,0 mm 9,6 km/h (2 Bft) W-SW 247 -0,4 C 8,3 km/h (2 Bft)
30.11.2015 18:10 6,4 C 5,8 C 62 % 1023,9 hPa 0,0 mm 9,6 km/h (2 Bft) W-SW 247 -0,3 C 15,0 km/h (3 Bft)
30.11.2015 18:15 6,3 C 5,8 C 62 % 1023,8 hPa 0,0 mm 8,8 km/h (2 Bft) W-SW 247 -0,4 C 10,6 km/h (2 Bft)
30.11.2015 18:20 6,3 C 5,8 C 62 % 1023,8 hPa 0,0 mm 8,8 km/h (2 Bft) W-SW 247 -0,4 C 14,0 km/h (3 Bft)
30.11.2015 18:25 6,5 C 5,9 C 61 % 1023,8 hPa 0,0 mm 10,1 km/h (2 Bft) W 270 -0,5 C 17,1 km/h (3 Bft)
30.11.2015 18:30 6,7 C 6,2 C 61 % 1023,8 hPa 0,0 mm 12,7 km/h (3 Bft) W-NW 292 -0,3 C 15,3 km/h (3 Bft)
30.11.2015 18:35 6,6 C 6,0 C 60 % 1023,9 hPa 0,0 mm 12,2 km/h (2 Bft) W 270 -0,6 C 15,0 km/h (3 Bft)
30.11.2015 18:40 6,8 C 6,3 C 60 % 1023,9 hPa 0,0 mm 13,2 km/h (3 Bft) W-SW 247 -0,4 C 16,6 km/h (3 Bft)
30.11.2015 18:45 6,7 C 6,2 C 60 % 1023,9 hPa 0,0 mm 14,0 km/h (3 Bft) W 270 -0,5 C 11,1 km/h (2 Bft)
30.11.2015 18:50 6,9 C 6,3 C 60 % 1023,9 hPa 0,0 mm 15,5 km/h (3 Bft) W 270 -0,3 C 11,9 km/h (2 Bft)
30.11.2015 18:55 7,0 C 6,4 C 60 % 1024,0 hPa 0,0 mm 17,3 km/h (3 Bft) W-NW 292 -0,2 C 23,3 km/h (4 Bft)
30.11.2015 19:00 6,9 C 6,3 C 60 % 1024,0 hPa 0,0 mm 15,0 km/h (3 Bft) W-NW 292 -0,3 C 14,0 km/h (3 Bft)
30.11.2015 19:05 6,9 C 6,4 C 60 % 1024,0 hPa 0,0 mm 14,8 km/h (3 Bft) W-SW 247 -0,3 C 14,8 km/h (3 Bft)
30.11.2015 19:10 6,9 C 6,4 C 59 % 1024,0 hPa 0,0 mm 15,0 km/h (3 Bft) W-NW 292 -0,5 C 17,1 km/h (3 Bft)
30.11.2015 19:15 6,7 C 6,2 C 59 % 1023,7 hPa 0,0 mm 13,5 km/h (3 Bft) W 270 -0,7 C 16,6 km/h (3 Bft)
30.11.2015 19:20 6,7 C 6,1 C 60 % 1023,7 hPa 0,0 mm 11,4 km/h (2 Bft) W-SW 247 -0,5 C 10,1 km/h (2 Bft)
30.11.2015 19:25 6,8 C 6,4 C 60 % 1023,7 hPa 0,0 mm 12,7 km/h (3 Bft) W 270 -0,4 C 11,1 km/h (2 Bft)
30.11.2015 19:30 6,7 C 6,2 C 59 % 1023,7 hPa 0,0 mm 11,1 km/h (2 Bft) W-SW 247 -0,7 C 13,5 km/h (3 Bft)
30.11.2015 19:35 6,5 C 6,1 C 60 % 1023,7 hPa 0,0 mm 9,3 km/h (2 Bft) W-SW 247 -0,7 C 10,1 km/h (2 Bft)
30.11.2015 19:40 6,5 C 6,1 C 60 % 1023,7 hPa 0,0 mm 8,8 km/h (2 Bft) W-SW 247 -0,7 C 12,2 km/h (2 Bft)
30.11.2015 19:45 6,4 C 6,0 C 60 % 1023,7 hPa 0,0 mm 9,1 km/h (2 Bft) SW 225 -0,8 C 13,2 km/h (3 Bft)
30.11.2015 19:50 6,6 C 6,0 C 60 % 1023,7 hPa 0,0 mm 11,1 km/h (2 Bft) W 270 -0,6 C 22,5 km/h (4 Bft)
30.11.2015 19:55 6,5 C 5,9 C 60 % 1023,5 hPa 0,0 mm 10,9 km/h (2 Bft) W-SW 247 -0,7 C 11,4 km/h (2 Bft)
30.11.2015 20:00 6,4 C 5,9 C 60 % 1023,5 hPa 0,0 mm 9,1 km/h (2 Bft) W 270 -0,8 C 7,8 km/h (2 Bft)
30.11.2015 20:05 6,4 C 5,9 C 60 % 1023,5 hPa 0,0 mm 9,1 km/h (2 Bft) S 180 -0,8 C 11,9 km/h (2 Bft)
30.11.2015 20:10 6,6 C 6,0 C 59 % 1023,5 hPa 0,0 mm 9,8 km/h (2 Bft) W-SW 247 -0,8 C 11,1 km/h (2 Bft)
30.11.2015 20:15 6,4 C 5,9 C 59 % 1023,4 hPa 0,0 mm 9,8 km/h (2 Bft) S-SO 157 -1,0 C 12,4 km/h (3 Bft)
30.11.2015 20:20 6,6 C 5,9 C 59 % 1023,4 hPa 0,0 mm 10,4 km/h (2 Bft) SW 225 -0,8 C 17,3 km/h (3 Bft)
30.11.2015 20:25 6,4 C 5,9 C 59 % 1023,4 hPa 0,0 mm 9,3 km/h (2 Bft) W-SW 247 -1,0 C 10,6 km/h (2 Bft)
30.11.2015 20:30 6,6 C 5,9 C 59 % 1023,4 hPa 0,0 mm 10,6 km/h (2 Bft) SW 225 -0,8 C 15,0 km/h (3 Bft)
30.11.2015 20:35 6,6 C 5,9 C 59 % 1023,6 hPa 0,0 mm 11,9 km/h (2 Bft) SW 225 -0,8 C 26,4 km/h (4 Bft)
30.11.2015 20:40 7,2 C 6,5 C 58 % 1023,6 hPa 0,0 mm 16,6 km/h (3 Bft) W-SW 247 -0,5 C 23,3 km/h (4 Bft)
30.11.2015 20:45 7,2 C 6,5 C 58 % 1023,6 hPa 0,0 mm 17,6 km/h (3 Bft) W 270 -0,5 C 15,8 km/h (3 Bft)
30.11.2015 20:50 6,9 C 6,4 C 58 % 1023,6 hPa 0,0 mm 15,3 km/h (3 Bft) NW 315 -0,8 C 14,2 km/h (3 Bft)
30.11.2015 20:55 6,5 C 6,1 C 58 % 1022,9 hPa 0,0 mm 12,4 km/h (3 Bft) S-SW 202 -1,2 C 14,2 km/h (3 Bft)
30.11.2015 21:00 6,5 C 6,0 C 58 % 1022,9 hPa 0,0 mm 9,8 km/h (2 Bft) W 270 -1,2 C 14,8 km/h (3 Bft)
30.11.2015 21:05 6,7 C 6,0 C 58 % 1022,9 hPa 0,0 mm 10,9 km/h (2 Bft) W-SW 247 -1,0 C 10,4 km/h (2 Bft)
30.11.2015 21:10 6,9 C 6,4 C 58 % 1022,9 hPa 0,0 mm 12,4 km/h (3 Bft) W-SW 247 -0,8 C 10,4 km/h (2 Bft)
30.11.2015 21:15 7,4 C 6,8 C 57 % 1023,0 hPa 0,0 mm 14,5 km/h (3 Bft) W-SW 247 -0,5 C 44,3 km/h (6 Bft)
30.11.2015 21:20 7,5 C 6,9 C 57 % 1023,0 hPa 0,0 mm 16,3 km/h (3 Bft) S-SO 157 -0,5 C 29,5 km/h (5 Bft)
30.11.2015 21:25 7,6 C 6,8 C 56 % 1023,0 hPa 0,0 mm 17,1 km/h (3 Bft) W-SW 247 -0,6 C 30,8 km/h (5 Bft)
30.11.2015 21:30 7,7 C 7,2 C 56 % 1023,0 hPa 0,0 mm 18,6 km/h (3 Bft) S 180 -0,5 C 30,3 km/h (5 Bft)
30.11.2015 21:35 7,9 C 7,3 C 55 % 1022,7 hPa 0,0 mm 19,4 km/h (3 Bft) W-SW 247 -0,6 C 25,1 km/h (4 Bft)
30.11.2015 21:40 8,1 C 7,2 C 55 % 1022,7 hPa 0,0 mm 22,5 km/h (4 Bft) S 180 -0,4 C 22,8 km/h (4 Bft)
30.11.2015 21:45 8,2 C 7,3 C 55 % 1022,7 hPa 0,0 mm 23,8 km/h (4 Bft) W 270 -0,3 C 24,6 km/h (4 Bft)
30.11.2015 21:50 8,2 C 7,3 C 54 % 1022,7 hPa 0,0 mm 24,1 km/h (4 Bft) W-SW 247 -0,5 C 29,0 km/h (5 Bft)
30.11.2015 21:55 8,2 C 7,6 C 54 % 1022,9 hPa 0,0 mm 23,6 km/h (4 Bft) W 270 -0,5 C 32,6 km/h (5 Bft)
30.11.2015 22:00 8,2 C 7,6 C 54 % 1022,9 hPa 0,0 mm 23,6 km/h (4 Bft) W 270 -0,5 C 25,6 km/h (4 Bft)
30.11.2015 22:05 8,1 C 7,3 C 54 % 1022,9 hPa 0,0 mm 21,5 km/h (4 Bft) SW 225 -0,6 C 26,7 km/h (4 Bft)
30.11.2015 22:10 8,1 C 7,3 C 54 % 1022,9 hPa 0,0 mm 21,0 km/h (4 Bft) W 270 -0,6 C 19,9 km/h (4 Bft)
30.11.2015 22:15 8,2 C 7,6 C 54 % 1022,8 hPa 0,0 mm 22,3 km/h (4 Bft) W-NW 292 -0,5 C 28,0 km/h (4 Bft)
30.11.2015 22:20 8,2 C 7,7 C 54 % 1022,8 hPa 0,0 mm 20,7 km/h (4 Bft) W-SW 247 -0,5 C 28,5 km/h (4 Bft)
30.11.2015 22:25 8,2 C 7,7 C 54 % 1022,8 hPa 0,0 mm 21,5 km/h (4 Bft) S-SO 157 -0,5 C 50,8 km/h (7 Bft)
30.11.2015 22:30 8,5 C 7,6 C 53 % 1022,8 hPa 0,0 mm 23,3 km/h (4 Bft) W 270 -0,5 C 36,3 km/h (5 Bft)
30.11.2015 22:35 8,6 C 8,0 C 53 % 1023,0 hPa 0,0 mm 24,6 km/h (4 Bft) W 270 -0,4 C 36,8 km/h (5 Bft)
30.11.2015 22:40 8,6 C 8,0 C 53 % 1023,0 hPa 0,0 mm 24,1 km/h (4 Bft) SW 225 -0,4 C 36,0 km/h (5 Bft)
30.11.2015 22:45 8,7 C 8,1 C 53 % 1023,0 hPa 0,0 mm 24,6 km/h (4 Bft) W-NW 292 -0,3 C 28,5 km/h (4 Bft)
30.11.2015 22:50 8,6 C 8,0 C 53 % 1023,0 hPa 0,0 mm 24,1 km/h (4 Bft) W 270 -0,4 C 25,6 km/h (4 Bft)
30.11.2015 22:55 8,6 C 8,0 C 53 % 1023,3 hPa 0,0 mm 22,5 km/h (4 Bft) W 270 -0,4 C 32,4 km/h (5 Bft)
30.11.2015 23:00 8,6 C 8,0 C 54 % 1023,3 hPa 0,0 mm 23,6 km/h (4 Bft) W 270 -0,2 C 29,0 km/h (5 Bft)
30.11.2015 23:05 8,6 C 8,0 C 54 % 1023,3 hPa 0,0 mm 24,9 km/h (4 Bft) W-SW 247 -0,2 C 47,6 km/h (6 Bft)
30.11.2015 23:10 8,7 C 8,1 C 54 % 1023,3 hPa 0,0 mm 24,1 km/h (4 Bft) W 270 -0,1 C 51,3 km/h (7 Bft)
30.11.2015 23:15 8,7 C 8,1 C 54 % 1023,2 hPa 0,0 mm 23,6 km/h (4 Bft) W 270 -0,1 C 39,6 km/h (6 Bft)
30.11.2015 23:20 8,8 C 7,9 C 54 % 1023,2 hPa 0,0 mm 24,6 km/h (4 Bft) W-SW 247 0,0 C 53,1 km/h (7 Bft)
30.11.2015 23:25 8,8 C 8,2 C 54 % 1023,2 hPa 0,0 mm 24,3 km/h (4 Bft) W 270 0,0 C 33,9 km/h (5 Bft)
30.11.2015 23:30 8,8 C 8,0 C 54 % 1023,2 hPa 0,0 mm 25,6 km/h (4 Bft) W-SW 247 0,0 C 37,3 km/h (5 Bft)
30.11.2015 23:35 8,8 C 8,0 C 54 % 1023,3 hPa 0,0 mm 25,6 km/h (4 Bft) NW 315 0,0 C 22,5 km/h (4 Bft)
30.11.2015 23:40 8,9 C 8,0 C 54 % 1023,3 hPa 0,0 mm 25,1 km/h (4 Bft) W-SW 247 0,1 C 26,9 km/h (4 Bft)
30.11.2015 23:41 8,9 C 7,6 C 54 % 1023,3 hPa 0,0 mm 24,1 km/h (4 Bft) W 270 0,1 C 41,9 km/h (6 Bft)
30.11.2015 23:44 8,9 C 8,1 C 54 % 1023,3 hPa 0,0 mm 24,1 km/h (4 Bft) W 270 0,1 C 41,9 km/h (6 Bft)
30.11.2015 23:50 8,9 C 8,3 C 54 % 1023,3 hPa 0,0 mm 26,2 km/h (4 Bft) W 270 0,1 C 30,3 km/h (5 Bft)
30.11.2015 23:55 8,9 C 8,0 C 54 % 1023,5 hPa 0,0 mm 26,4 km/h (4 Bft) W-SW 247 0,1 C 25,9 km/h (4 Bft)
_ Min-Zeit 09:35 09:35 22:55 00:10 - 19:40 - - 21:00 03:25
Minimum _ 6,0 C 5,2 C 53 % 1022,4 hPa - 8,8 km/h (2 Bft) - - -1,2 C 7,3 km/h (2 Bft)
_ Max-Zeit 15:05 14:50 09:40 11:10 10:00 23:55 - - 09:40 06:30
Maximum _ 9,1 C 8,8 C 76 % 1025,9 hPa 0,7 mm 26,4 km/h
W-SW (4 Bft)
- - 2,2 C 64,7 km/h
W (8 Bft)
Durchschnitt _ 7,5 C 7,0 C 61 % 1024,1 hPa #0,7 mm 17,5 km/h (3 Bft) W - 0,3 C 23,3 km/h (4 Bft)